カタログに戻る

CZ-2C DEB

運用中SSO
NORAD 28481·DEBRIS·🇨🇳 China

打ち上げ Nov 18, 2004 から Xichang Satellite Launch Center

Loading…

次のパス (今後24時間)

TLE

最新Source: Space-Track

元期: Sep 14, 2026, 04:50 UTC

1 28481U 04046C   26257.20144854  .00001549  00000-0  35137-3 0  9998
2 28481  98.0180 246.2141 0096177 195.7062 224.0731 14.54633573143841

AllMySatでCZ-2C DEBをリアルタイム追跡

Download on the App Store